Meteo pe oră la Abdaevo

Astăzi, 29 Iulie, Joi

Timp Temperatura Precipitaţii Vânt Presiune Umiditate
00:00 +13°C° 0 mm 1 m/s 743 mmHg 63%
01:00 +13°C° 0 mm 1 m/s 743 mmHg 64%
02:00 +13°C° 0 mm 2 m/s 743 mmHg 65%
03:00 +13°C° 0 mm 2 m/s 743 mmHg 66%
04:00 +14°C° 0 mm 2 m/s 743 mmHg 65%
05:00 +15°C° 0 mm 2 m/s 742 mmHg 65%
06:00 +16°C° 0 mm 2 m/s 742 mmHg 64%
07:00 +19°C° 0 mm 2 m/s 742 mmHg 59%
08:00 +21°C° 0 mm 3 m/s 742 mmHg 54%
09:00 +24°C° 0 mm 3 m/s 742 mmHg 48%
10:00 +25°C° 0 mm 4 m/s 741 mmHg 47%
11:00 +26°C° 0 mm 4 m/s 741 mmHg 46%
12:00 +27°C° 0 mm 4 m/s 741 mmHg 45%
13:00 +26°C° 0 mm 4 m/s 741 mmHg 49%
14:00 +25°C° 0 mm 4 m/s 740 mmHg 52%
15:00 +25°C° 0 mm 5 m/s 740 mmHg 56%
16:00 +22°C° 0 mm 4 m/s 740 mmHg 65%
17:00 +20°C° 0 mm 4 m/s 739 mmHg 73%
18:00 +19°C° 0 mm 4 m/s 739 mmHg 82%
19:00 +18°C° 0 mm 4 m/s 738 mmHg 86%
20:00 +17°C° 0 mm 3 m/s 738 mmHg 90%
21:00 +16°C° 0 mm 3 m/s 738 mmHg 93%
22:00 +16°C° 0 mm 2 m/s 737 mmHg 94%
23:00 +16°C° 0 mm 2 m/s 737 mmHg 95%

Mâine, 30 Iulie, Vineri

Timp Temperatura Precipitaţii Vânt Presiune Umiditate
00:00 +16°C° 0 mm 1 m/s 736 mmHg 96%
01:00 +15°C° 0 mm 1 m/s 736 mmHg 97%
02:00 +15°C° 0 mm 1 m/s 736 mmHg 97%
03:00 +15°C° 0 mm 1 m/s 736 mmHg 98%
04:00 +16°C° 0 mm 2 m/s 736 mmHg 96%
05:00 +17°C° 0 mm 2 m/s 736 mmHg 95%
06:00 +18°C° 0 mm 3 m/s 737 mmHg 93%
07:00 +19°C° 0 mm 3 m/s 737 mmHg 84%
08:00 +21°C° 0 mm 3 m/s 737 mmHg 75%
09:00 +23°C° 0 mm 4 m/s 737 mmHg 67%
10:00 +26°C° 0 mm 4 m/s 737 mmHg 59%
11:00 +27°C° 0 mm 4 m/s 737 mmHg 52%
12:00 +28°C° 0 mm 4 m/s 738 mmHg 45%
13:00 +29°C° 0 mm 4 m/s 738 mmHg 43%
14:00 +29°C° 0 mm 4 m/s 738 mmHg 40%
15:00 +30°C° 0 mm 4 m/s 738 mmHg 38%
16:00 +29°C° 0 mm 3 m/s 738 mmHg 43%
17:00 +28°C° 0 mm 3 m/s 738 mmHg 48%
18:00 +27°C° 0 mm 2 m/s 738 mmHg 53%
19:00 +25°C° 0 mm 2 m/s 738 mmHg 59%
20:00 +24°C° 0 mm 2 m/s 738 mmHg 65%
21:00 +21°C° 0 mm 3 m/s 738 mmHg 71%
22:00 +20°C° 0.3 mm 2 m/s 738 mmHg 78%
23:00 +19°C° 0.3 mm 2 m/s 738 mmHg 86%

Poimâine, 31 Iulie, Sâmbătă

Timp Temperatura Precipitaţii Vânt Presiune Umiditate
00:00 +18°C° 0.3 mm 2 m/s 738 mmHg 94%
01:00 +18°C° 0 mm 2 m/s 738 mmHg 94%
02:00 +19°C° 0 mm 1 m/s 738 mmHg 94%
03:00 +19°C° 0 mm 1 m/s 738 mmHg 94%
04:00 +18°C° 0 mm 2 m/s 738 mmHg 94%
05:00 +19°C° 0 mm 2 m/s 738 mmHg 93%
06:00 +19°C° 0 mm 2 m/s 737 mmHg 93%
07:00 +20°C° 0 mm 3 m/s 737 mmHg 88%
08:00 +21°C° 0 mm 3 m/s 737 mmHg 83%
09:00 +22°C° 0 mm 4 m/s 737 mmHg 77%
10:00 +23°C° 0.1 mm 4 m/s 737 mmHg 73%
11:00 +25°C° 0.1 mm 4 m/s 737 mmHg 69%
12:00 +26°C° 0.1 mm 4 m/s 737 mmHg 65%
13:00 +26°C° 0.1 mm 4 m/s 737 mmHg 63%
14:00 +26°C° 0.1 mm 4 m/s 737 mmHg 61%
15:00 +27°C° 0.1 mm 4 m/s 737 mmHg 60%
16:00 +26°C° 0 mm 4 m/s 737 mmHg 57%
17:00 +26°C° 0 mm 4 m/s 737 mmHg 55%
18:00 +26°C° 0 mm 4 m/s 737 mmHg 53%
19:00 +25°C° 0 mm 3 m/s 737 mmHg 56%
20:00 +22°C° 0 mm 3 m/s 738 mmHg 58%
21:00 +21°C° 0 mm 2 m/s 738 mmHg 61%
22:00 +19°C° 0 mm 2 m/s 739 mmHg 66%
23:00 +18°C° 0 mm 2 m/s 739 mmHg 71%

1 August, Duminică

Timp Temperatura Precipitaţii Vânt Presiune Umiditate
00:00 +17°C° 0 mm 2 m/s 739 mmHg 76%
01:00 +16°C° 0 mm 2 m/s 739 mmHg 76%
02:00 +16°C° 0 mm 2 m/s 740 mmHg 76%
03:00 +16°C° 0 mm 2 m/s 740 mmHg 76%
04:00 +17°C° 0 mm 2 m/s 740 mmHg 74%
05:00 +18°C° 0 mm 2 m/s 740 mmHg 72%
06:00 +18°C° 0 mm 2 m/s 741 mmHg 69%
07:00 +20°C° 0 mm 2 m/s 741 mmHg 62%
08:00 +22°C° 0 mm 3 m/s 741 mmHg 55%
09:00 +25°C° 0 mm 3 m/s 741 mmHg 48%
10:00 +26°C° 0 mm 4 m/s 741 mmHg 45%
11:00 +27°C° 0 mm 4 m/s 741 mmHg 42%
12:00 +28°C° 0 mm 4 m/s 742 mmHg 40%
13:00 +29°C° 0 mm 4 m/s 742 mmHg 38%
14:00 +29°C° 0 mm 4 m/s 742 mmHg 37%
15:00 +29°C° 0 mm 4 m/s 742 mmHg 36%
16:00 +28°C° 0 mm 3 m/s 742 mmHg 42%
17:00 +27°C° 0 mm 2 m/s 742 mmHg 49%
18:00 +25°C° 0 mm 2 m/s 742 mmHg 55%
19:00 +24°C° 0 mm 1 m/s 742 mmHg 58%
20:00 +23°C° 0 mm 1 m/s 742 mmHg 62%
21:00 +19°C° 0 mm 0 m/s 742 mmHg 65%
22:00 +21°C° 0 mm 1 m/s 742 mmHg 66%
23:00 +20°C° 0 mm 1 m/s 742 mmHg 67%

2 August, Luni

Timp Temperatura Precipitaţii Vânt Presiune Umiditate
00:00 +20°C° 0 mm 1 m/s 742 mmHg 69%
01:00 +20°C° 0 mm 1 m/s 742 mmHg 69%
02:00 +20°C° 0 mm 1 m/s 742 mmHg 68%
03:00 +19°C° 0 mm 2 m/s 742 mmHg 68%
04:00 +20°C° 0 mm 2 m/s 742 mmHg 68%
05:00 +20°C° 0 mm 2 m/s 742 mmHg 67%
06:00 +21°C° 0 mm 3 m/s 742 mmHg 66%
07:00 +24°C° 0 mm 3 m/s 742 mmHg 60%
08:00 +26°C° 0 mm 4 m/s 742 mmHg 54%
09:00 +27°C° 0 mm 5 m/s 742 mmHg 48%
10:00 +29°C° 0 mm 5 m/s 742 mmHg 44%
11:00 +32°C° 0 mm 5 m/s 742 mmHg 40%
12:00 +34°C° 0 mm 5 m/s 742 mmHg 36%
13:00 +34°C° 0 mm 5 m/s 741 mmHg 36%
14:00 +33°C° 0 mm 5 m/s 741 mmHg 36%
15:00 +33°C° 0 mm 5 m/s 741 mmHg 36%
16:00 +33°C° 0 mm 5 m/s 741 mmHg 38%
17:00 +32°C° 0 mm 4 m/s 741 mmHg 41%
18:00 +30°C° 0 mm 4 m/s 741 mmHg 43%
19:00 +28°C° 0 mm 3 m/s 741 mmHg 51%
20:00 +26°C° 0 mm 3 m/s 741 mmHg 58%
21:00 +24°C° 0 mm 2 m/s 741 mmHg 66%
22:00 +23°C° 0.1 mm 2 m/s 740 mmHg 73%
23:00 +21°C° 0.1 mm 2 m/s 740 mmHg 81%

3 August, Marţi

Timp Temperatura Precipitaţii Vânt Presiune Umiditate
00:00 +21°C° 0.1 mm 1 m/s 740 mmHg 88%
01:00 +19°C° 0 mm 2 m/s 740 mmHg 87%
02:00 +19°C° 0 mm 2 m/s 740 mmHg 86%
03:00 +19°C° 0 mm 2 m/s 740 mmHg 86%
04:00 +20°C° 0.1 mm 2 m/s 740 mmHg 82%
05:00 +20°C° 0.1 mm 2 m/s 740 mmHg 79%
06:00 +21°C° 0.1 mm 2 m/s 740 mmHg 75%
07:00 +25°C° 0 mm 3 m/s 740 mmHg 65%
08:00 +27°C° 0 mm 4 m/s 739 mmHg 55%
09:00 +30°C° 0 mm 4 m/s 739 mmHg 45%
10:00 +32°C° 0 mm 5 m/s 739 mmHg 40%
11:00 +34°C° 0 mm 5 m/s 739 mmHg 36%
12:00 +36°C° 0 mm 6 m/s 739 mmHg 31%
13:00 +35°C° 0 mm 5 m/s 739 mmHg 31%
14:00 +35°C° 0 mm 5 m/s 739 mmHg 31%
15:00 +35°C° 0 mm 5 m/s 739 mmHg 31%
16:00 +33°C° 0 mm 6 m/s 739 mmHg 37%
17:00 +30°C° 0 mm 6 m/s 740 mmHg 44%
18:00 +28°C° 0 mm 6 m/s 740 mmHg 50%
19:00 +27°C° 0 mm 6 m/s 740 mmHg 55%
20:00 +25°C° 0 mm 5 m/s 741 mmHg 60%
21:00 +22°C° 0 mm 4 m/s 741 mmHg 65%
22:00 +21°C° 0 mm 4 m/s 741 mmHg 72%
23:00 +20°C° 0 mm 4 m/s 741 mmHg 78%
Arată mai mult

Formular de consimțământ

Meteoprog și furnizorii noștri de servicii pot stoca și accesa date personale, precum cookies, identificatori de dispozitiv sau alte tehnologii similare pe dispozitivul dumneavoastră și procesa astfel de date pentru a personaliza conținutul și reclamele, dar și pentru a oferi caracteristici de social media și pentru a analiza traficul.

  • Stocarea și/sau accesarea informațiilor pe dispozitivul dumneavoastră

    Cookies, identificatori de dispozitiv sau alte informații pot fi stocate sau accesate pe dispozitiv în scopurile indicate mai sus.

  • Reclame și conținut personalizat, evaluarea reclamelor și a conținutului, informații despre audiențe și dezvoltarea produselor

    Reclamele și conținutul pot fi personalizate pe baza unui profil. Pot fi adăugate date suplimentare pentru a personaliza mai bine reclamele și conținutul. Performanța reclamelor și conținutului poate fi măsurată. Pot fi obținute informații despre utilizatorii care au văzut reclamele și conținutul. Aceste date pot fi utilizate pentru a dezvolta sau îmbunătăți experiența utilizatorilor, sistemele și software-ul.

Dând clic pe ‘Sunt de acord’, permiteți utilizarea cookie-urilor menționate, a identificatorilor de dispozitiv, balizelor web sau altor tehnologii similare. Setările pot fi modificate din browser-ul dispozitivului dumneavoastră.

În anumite scopuri, interesele legitime pot prima asupra consimțământului. Puteți citi mai multe informații în acest sens în Politica privind Confidențialitatea Datelor și Cookie.